User: anonymous   Login
Location: Unspecified
(0.0000°N, 0.0000°E)
Time: 09:29:44
(UTC+00:00)
Language:

ITOS 1 - Orbit

View from above orbital plane
View from above orbital plane
View from above satellite
View from above satellite

Ground track
Ground track

The orbit data is extracted from the following two-line orbital elements,

1 04320U 70008A   17295.85925005 -.00000028  00000-0  11026-3 0  9996
2 04320 101.8167   1.7951 0028391 309.0906 181.0353 12.52046099378892
Epoch (UTC): 22 October 2017 20:37:19
Eccentricity: 0.0028391
inclination: 101.8167°
perigee height: 1434 km
apogee height: 1478 km
right ascension of ascending node: 1.7951°
argument of perigee: 309.0906°
revolutions per day: 12.52046099
mean anomaly at epoch: 181.0353°
orbit number at epoch: 37889

The dashed part of the orbit path shows where the satellite is in the earth's shadow,  

DLR